Tracking 30115 objects as of 17-Jan-2025
HD Live streaming from Space Station
objects crossing your sky now

OV3-3

Track OV3-3 now!
10-day predictions
OV3-3 is classified as:


NORAD ID: 2389
Int'l Code: 1966-070A
Perigee: 342.6 km
Apogee: 1,966.9 km
Inclination: 81.3 °
Period: 108.3 minutes
Semi major axis: 7525 km
RCS: 0.7052 m2 (medium)
Launch date: August 4, 1966
Source: United States (US)
Launch site: AIR FORCE WESTERN TEST RANGE (AFWTR)
Your satellite tracking list
Your tracking list is empty




NASA's NSSDC Master Catalog

Two Line Element Set (TLE):
1 02389U 66070A   25016.86718713  .00016958  00000-0  80820-3 0  9996
2 02389  81.3287  61.2515 1079183  42.4903 325.4820 13.29769840529924
Source of the keplerian elements: AFSPC